SIA22A WSSS-KEWR

Flight info

Callsign SIA22A
Flight time N/A
Altitude 32000
Route TOMAN5B TOMAN L625 AKMON/K0954F320 L625 ANOKI/N0514F320 L625 ABVAR/N0501F350 L625 MEVIN B462 KAZIK Y59 AZAMA Y57 LIGNI/N0488F370 Y57 POROT Y809 IDLAN Y812 ADNAP OTR7 EMRON DCT 42N160E 46N170E 47N180E/N0496F390 49N170W 50N160W 50N150W 49N140W/N0478F410 DCT PRETY DCT SEFIX DCT TOU DCT 4830N11500W DCT KU21Q DCT GGW DCT FAR DCT GRB DCT TWIGS DCT JHW DCT SLT DCT FQM FQM3
Aircraft A359/H-SDE2E3GHIJ3J4J5LM1ORWXY/LB1D1

Departure

Time N/A
Airport Singapore Changi Airport (WSSS)

Arrival

Time 2026-05-07 06:47
Airport Newark Liberty International Airport (KEWR)
Time Latitude Longitude Altitude Speed Heading
2026-05-07 03:55 48.20273 -106.50246 31877 ft 519 kts 94°
2026-05-07 03:55 48.19706 -106.44899 31934 ft 519 kts 93°
2026-05-07 03:56 48.18567 -106.34229 31911 ft 519 kts 93°
2026-05-07 03:56 48.17422 -106.23527 32178 ft 522 kts 93°
2026-05-07 03:56 48.16844 -106.18138 32584 ft 525 kts 93°
2026-05-07 03:57 48.16263 -106.12747 32983 ft 527 kts 93°
2026-05-07 03:57 48.15675 -106.07312 33321 ft 530 kts 93°
2026-05-07 03:57 48.15082 -106.01869 33841 ft 529 kts 94°
2026-05-07 03:57 48.14484 -105.96438 34346 ft 527 kts 93°
2026-05-07 03:58 48.13885 -105.91017 34736 ft 527 kts 93°
2026-05-07 03:58 48.13288 -105.85619 35137 ft 526 kts 93°
2026-05-07 03:58 48.12688 -105.80210 35532 ft 525 kts 93°
2026-05-07 03:58 48.12087 -105.74815 35847 ft 526 kts 93°
2026-05-07 03:59 48.11484 -105.69413 35916 ft 526 kts 93°
2026-05-07 03:59 48.10267 -105.58609 35917 ft 526 kts 93°
2026-05-07 04:00 48.09048 -105.47887 35938 ft 526 kts 93°
2026-05-07 04:00 48.07812 -105.37105 35927 ft 527 kts 93°
2026-05-07 04:01 48.06563 -105.26302 35947 ft 527 kts 93°
2026-05-07 04:01 48.05302 -105.15497 35961 ft 527 kts 93°
2026-05-07 04:02 48.04033 -105.04709 35979 ft 527 kts 93°
2026-05-07 04:02 48.02752 -104.93912 35982 ft 528 kts 93°
2026-05-07 04:03 48.01469 -104.83182 35987 ft 528 kts 93°
2026-05-07 04:03 48.00165 -104.72371 35983 ft 528 kts 93°
2026-05-07 04:04 47.98853 -104.61580 35987 ft 528 kts 94°
2026-05-07 04:04 47.97529 -104.50789 35992 ft 529 kts 93°
2026-05-07 04:05 47.96193 -104.39972 35988 ft 530 kts 93°
2026-05-07 04:05 47.94843 -104.29144 35991 ft 530 kts 94°
2026-05-07 04:06 47.93483 -104.18316 35992 ft 531 kts 94°
2026-05-07 04:06 47.92123 -104.07584 36013 ft 531 kts 94°
2026-05-07 04:07 47.90741 -103.96756 35992 ft 531 kts 94°
2026-05-07 04:07 47.89348 -103.85927 35985 ft 532 kts 94°
2026-05-07 04:08 47.87947 -103.75121 35982 ft 532 kts 94°
2026-05-07 04:08 47.86535 -103.64307 35982 ft 532 kts 94°
2026-05-07 04:09 47.85111 -103.53502 35982 ft 531 kts 94°
2026-05-07 04:09 47.83678 -103.42706 35980 ft 532 kts 94°
2026-05-07 04:10 47.82234 -103.31900 35982 ft 532 kts 94°
2026-05-07 04:10 47.80782 -103.21120 35979 ft 532 kts 94°
2026-05-07 04:11 47.79318 -103.10329 35983 ft 532 kts 94°
2026-05-07 04:11 47.77844 -102.99550 36003 ft 532 kts 95°
2026-05-07 04:11 47.77105 -102.94168 36275 ft 532 kts 95°
2026-05-07 04:12 47.76370 -102.88848 36710 ft 530 kts 95°
2026-05-07 04:12 47.75629 -102.83510 37156 ft 527 kts 95°
2026-05-07 04:12 47.74888 -102.78185 37582 ft 526 kts 95°
2026-05-07 04:12 47.74146 -102.72867 37970 ft 525 kts 96°
2026-05-07 04:13 47.73404 -102.67566 38444 ft 522 kts 96°
2026-05-07 04:13 47.72663 -102.62296 38817 ft 520 kts 96°
2026-05-07 04:13 47.71922 -102.57035 39039 ft 521 kts 96°
2026-05-07 04:13 47.71178 -102.51767 39252 ft 521 kts 97°
2026-05-07 04:14 47.70431 -102.46498 39482 ft 522 kts 97°
2026-05-07 04:14 47.69682 -102.41235 39704 ft 522 kts 97°
2026-05-07 04:14 47.68928 -102.35963 39903 ft 522 kts 97°
2026-05-07 04:15 47.67411 -102.25409 39958 ft 522 kts 97°
2026-05-07 04:15 47.65886 -102.14874 39972 ft 522 kts 97°
2026-05-07 04:16 47.64350 -102.04337 39966 ft 522 kts 97°
2026-05-07 04:16 47.62805 -101.93812 39973 ft 523 kts 97°
2026-05-07 04:17 47.61250 -101.83286 39971 ft 523 kts 97°
2026-05-07 04:17 47.59696 -101.72828 39985 ft 523 kts 98°
2026-05-07 04:18 47.58121 -101.62312 39977 ft 523 kts 98°
2026-05-07 04:18 47.56534 -101.51787 39980 ft 523 kts 98°
2026-05-07 04:19 47.54938 -101.41273 39985 ft 524 kts 98°
2026-05-07 04:19 47.53331 -101.30754 39987 ft 524 kts 98°
2026-05-07 04:20 47.51717 -101.20261 39990 ft 523 kts 98°
2026-05-07 04:20 47.50093 -101.09767 39993 ft 523 kts 98°
2026-05-07 04:21 47.47636 -100.94018 40000 ft 524 kts 99°
2026-05-07 04:21 47.45986 -100.83530 39999 ft 524 kts 99°
2026-05-07 04:22 47.44325 -100.73039 40075 ft 525 kts 99°
2026-05-07 04:22 47.43501 -100.67853 40299 ft 524 kts 99°
2026-05-07 04:22 47.42665 -100.62616 40551 ft 523 kts 99°
2026-05-07 04:23 47.41827 -100.57386 40752 ft 523 kts 99°
2026-05-07 04:23 47.40989 -100.52166 40976 ft 522 kts 100°
2026-05-07 04:23 47.40150 -100.46959 41172 ft 522 kts 100°
2026-05-07 04:23 47.39308 -100.41744 41380 ft 522 kts 100°
2026-05-07 04:24 47.38463 -100.36534 41590 ft 521 kts 100°
2026-05-07 04:24 47.37616 -100.31322 41760 ft 521 kts 100°
2026-05-07 04:24 47.36769 -100.26130 41920 ft 521 kts 101°
2026-05-07 04:24 47.35914 -100.20905 42000 ft 523 kts 101°
2026-05-07 04:25 47.34202 -100.10486 42008 ft 522 kts 101°
2026-05-07 04:25 47.32478 -100.00065 42010 ft 523 kts 101°
2026-05-07 04:26 47.30757 -99.89722 42012 ft 523 kts 101°
2026-05-07 04:26 47.29017 -99.79332 42012 ft 523 kts 101°
2026-05-07 04:27 47.27262 -99.68914 42013 ft 523 kts 101°
2026-05-07 04:27 47.25504 -99.58538 42012 ft 523 kts 101°
2026-05-07 04:28 47.23733 -99.48144 42019 ft 523 kts 102°
2026-05-07 04:28 47.21966 -99.37842 42014 ft 523 kts 102°
2026-05-07 04:29 47.20175 -99.27458 42010 ft 523 kts 102°
2026-05-07 04:29 47.18395 -99.17199 42012 ft 523 kts 102°
2026-05-07 04:30 47.16587 -99.06841 42026 ft 523 kts 102°
2026-05-07 04:30 47.15076 -98.98226 42014 ft 523 kts 102°
2026-05-07 04:31 47.13252 -98.87885 42010 ft 523 kts 102°
2026-05-07 04:31 47.11415 -98.77534 42013 ft 523 kts 102°
2026-05-07 04:32 47.09272 -98.65528 42005 ft 523 kts 103°
2026-05-07 04:32 47.07720 -98.56882 41982 ft 523 kts 103°
2026-05-07 04:33 47.05858 -98.46562 41988 ft 523 kts 103°
2026-05-07 04:33 47.03996 -98.36307 42005 ft 524 kts 103°
2026-05-07 04:34 47.02113 -98.25989 41992 ft 524 kts 103°
2026-05-07 04:34 47.00221 -98.15684 41986 ft 524 kts 103°
2026-05-07 04:35 46.98321 -98.05389 41985 ft 523 kts 103°
2026-05-07 04:35 46.96411 -97.95099 41999 ft 523 kts 103°
2026-05-07 04:36 46.94495 -97.84831 41986 ft 523 kts 103°
2026-05-07 04:36 46.92569 -97.74569 41993 ft 523 kts 103°
2026-05-07 04:37 46.90631 -97.64294 42010 ft 523 kts 104°
2026-05-07 04:37 46.88683 -97.54031 42021 ft 524 kts 104°
2026-05-07 04:38 46.86740 -97.43842 42018 ft 524 kts 104°
2026-05-07 04:38 46.84773 -97.33584 42025 ft 524 kts 104°
2026-05-07 04:39 46.82800 -97.23356 42020 ft 524 kts 104°
2026-05-07 04:39 46.80815 -97.13116 42016 ft 524 kts 104°
2026-05-07 04:40 46.78821 -97.02881 42010 ft 524 kts 104°
2026-05-07 04:40 46.76822 -96.92677 42008 ft 524 kts 104°
2026-05-07 04:41 46.74806 -96.82452 42012 ft 524 kts 105°
2026-05-07 04:41 46.72705 -96.72283 42002 ft 524 kts 106°
2026-05-07 04:42 46.70554 -96.62119 42005 ft 525 kts 106°
2026-05-07 04:42 46.68406 -96.51965 42037 ft 524 kts 106°
2026-05-07 04:43 46.66259 -96.41809 42038 ft 524 kts 106°
2026-05-07 04:43 46.64105 -96.31659 42034 ft 524 kts 106°
2026-05-07 04:44 46.61945 -96.21529 42028 ft 525 kts 106°
2026-05-07 04:44 46.59787 -96.11461 42021 ft 524 kts 106°
2026-05-07 04:45 46.57611 -96.01359 42020 ft 524 kts 107°
2026-05-07 04:45 46.55420 -95.91241 42021 ft 525 kts 107°
2026-05-07 04:46 46.53221 -95.81130 42023 ft 525 kts 107°
2026-05-07 04:46 46.51012 -95.71026 42034 ft 525 kts 107°
2026-05-07 04:47 46.48797 -95.60939 42035 ft 525 kts 107°
2026-05-07 04:47 46.46570 -95.50849 42018 ft 524 kts 107°
2026-05-07 04:48 46.44336 -95.40775 42007 ft 524 kts 107°
2026-05-07 04:48 46.42092 -95.30705 41999 ft 525 kts 107°
2026-05-07 04:49 46.39853 -95.20704 42046 ft 525 kts 108°
2026-05-07 04:49 46.37592 -95.10652 42029 ft 525 kts 108°
2026-05-07 04:50 46.35320 -95.00601 42023 ft 525 kts 108°
2026-05-07 04:50 46.33041 -94.90562 42017 ft 525 kts 108°
2026-05-07 04:51 46.30752 -94.80529 42017 ft 525 kts 108°
2026-05-07 04:51 46.28455 -94.70507 42019 ft 525 kts 108°
2026-05-07 04:52 46.26149 -94.60493 42023 ft 525 kts 108°
2026-05-07 04:52 46.23829 -94.50464 42017 ft 526 kts 108°
2026-05-07 04:53 46.21502 -94.40450 42012 ft 526 kts 108°
2026-05-07 04:53 46.19182 -94.30515 42011 ft 526 kts 109°
2026-05-07 04:54 46.16841 -94.20533 42012 ft 526 kts 109°
2026-05-07 04:54 46.14488 -94.10547 42024 ft 526 kts 109°
2026-05-07 04:55 46.12127 -94.00571 42050 ft 526 kts 109°
2026-05-07 04:55 46.09759 -93.90610 42032 ft 525 kts 109°
2026-05-07 04:56 46.07379 -93.80644 42045 ft 526 kts 109°
2026-05-07 04:56 46.04986 -93.70671 42045 ft 527 kts 109°
2026-05-07 04:57 46.02584 -93.60704 42048 ft 527 kts 109°
2026-05-07 04:57 46.00174 -93.50751 42052 ft 527 kts 109°
2026-05-07 04:58 45.97758 -93.40812 42052 ft 527 kts 109°
2026-05-07 04:58 45.95346 -93.30936 42054 ft 527 kts 109°
2026-05-07 04:59 45.92914 -93.21022 42054 ft 527 kts 109°
2026-05-07 04:59 45.90469 -93.11098 42054 ft 527 kts 110°
2026-05-07 05:00 45.88014 -93.01178 42050 ft 528 kts 110°
2026-05-07 05:00 45.85547 -92.91254 42047 ft 528 kts 110°
2026-05-07 05:01 45.83071 -92.81334 42041 ft 528 kts 110°
2026-05-07 05:01 45.80590 -92.71438 42034 ft 527 kts 110°
2026-05-07 05:02 45.78098 -92.61542 42025 ft 527 kts 110°
2026-05-07 05:02 45.75602 -92.51673 42023 ft 527 kts 110°
2026-05-07 05:03 45.73095 -92.41800 42017 ft 528 kts 111°
2026-05-07 05:03 45.70575 -92.31922 42025 ft 529 kts 111°
2026-05-07 05:04 45.68060 -92.22103 42033 ft 529 kts 111°
2026-05-07 05:04 45.65522 -92.12241 42027 ft 529 kts 111°
2026-05-07 05:05 45.62972 -92.02369 42021 ft 529 kts 111°
2026-05-07 05:05 45.60413 -91.92505 42020 ft 529 kts 111°
2026-05-07 05:06 45.57847 -91.82657 42033 ft 529 kts 111°
2026-05-07 05:06 45.55274 -91.72822 42028 ft 530 kts 111°
2026-05-07 05:07 45.52681 -91.62954 42032 ft 530 kts 111°
2026-05-07 05:07 45.50105 -91.53190 42035 ft 530 kts 112°
2026-05-07 05:08 45.47493 -91.43330 42040 ft 531 kts 112°
2026-05-07 05:08 45.44875 -91.33487 42039 ft 531 kts 112°
2026-05-07 05:09 45.42251 -91.23666 42035 ft 531 kts 112°
2026-05-07 05:09 45.39612 -91.13830 42036 ft 531 kts 112°
2026-05-07 05:10 45.36970 -91.04022 42023 ft 531 kts 112°
2026-05-07 05:10 45.34311 -90.94193 42033 ft 532 kts 112°
2026-05-07 05:11 45.31647 -90.84382 42056 ft 532 kts 112°
2026-05-07 05:11 45.28971 -90.74567 42064 ft 532 kts 112°
2026-05-07 05:12 45.26287 -90.64766 42044 ft 532 kts 112°
2026-05-07 05:12 45.23596 -90.54979 42035 ft 532 kts 112°
2026-05-07 05:13 45.20917 -90.45272 42021 ft 532 kts 112°
2026-05-07 05:13 45.18211 -90.35508 41999 ft 532 kts 113°
2026-05-07 05:14 45.15490 -90.25729 42008 ft 533 kts 113°
2026-05-07 05:14 45.12761 -90.15963 42011 ft 534 kts 113°
2026-05-07 05:15 45.10019 -90.06187 42023 ft 533 kts 113°
2026-05-07 05:15 45.07291 -89.96502 42059 ft 533 kts 113°
2026-05-07 05:16 45.04534 -89.86750 42058 ft 534 kts 114°
2026-05-07 05:16 45.01765 -89.76997 42058 ft 534 kts 114°
2026-05-07 05:17 44.98986 -89.67245 42013 ft 534 kts 114°
2026-05-07 05:17 44.96203 -89.57519 42027 ft 535 kts 114°
2026-05-07 05:18 44.93404 -89.47775 42031 ft 535 kts 114°
2026-05-07 05:18 44.90603 -89.38061 42041 ft 535 kts 114°
2026-05-07 05:19 44.87806 -89.28401 42051 ft 535 kts 114°
2026-05-07 05:19 44.84986 -89.18698 42052 ft 535 kts 114°
2026-05-07 05:20 44.82154 -89.08991 42056 ft 535 kts 114°
2026-05-07 05:20 44.79315 -88.99300 42052 ft 535 kts 114°
2026-05-07 05:21 44.75053 -88.84819 42052 ft 535 kts 115°
2026-05-07 05:22 44.72676 -88.76779 42045 ft 535 kts 115°
2026-05-07 05:22 44.69811 -88.67122 42043 ft 535 kts 115°
2026-05-07 05:23 44.66935 -88.57464 42039 ft 535 kts 115°
2026-05-07 05:23 44.64049 -88.47812 42045 ft 535 kts 115°
2026-05-07 05:24 44.61160 -88.38182 42048 ft 536 kts 115°
2026-05-07 05:24 44.58257 -88.28547 42035 ft 537 kts 115°
2026-05-07 05:25 44.55335 -88.18883 42038 ft 538 kts 115°
2026-05-07 05:25 44.52547 -88.09142 42039 ft 539 kts 113°
2026-05-07 05:26 44.49892 -87.99386 42038 ft 539 kts 113°
2026-05-07 05:26 44.47197 -87.89585 42040 ft 540 kts 114°
2026-05-07 05:27 44.44464 -87.79793 42044 ft 539 kts 114°
2026-05-07 05:27 44.41714 -87.70026 42037 ft 539 kts 114°
2026-05-07 05:28 44.38957 -87.60274 42016 ft 540 kts 114°
2026-05-07 05:28 44.36187 -87.50517 42038 ft 541 kts 114°
2026-05-07 05:29 44.33397 -87.40717 42038 ft 541 kts 115°
2026-05-07 05:29 44.30607 -87.30957 42032 ft 542 kts 115°
2026-05-07 05:30 44.27800 -87.21177 42028 ft 542 kts 115°
2026-05-07 05:30 44.25005 -87.11480 42034 ft 543 kts 115°
2026-05-07 05:31 44.22181 -87.01716 42022 ft 543 kts 115°
2026-05-07 05:31 44.19349 -86.91965 42014 ft 543 kts 115°
2026-05-07 05:32 44.16506 -86.82214 42021 ft 544 kts 115°
2026-05-07 05:32 44.13648 -86.72450 42015 ft 545 kts 115°
2026-05-07 05:33 44.10776 -86.62674 42011 ft 545 kts 115°
2026-05-07 05:33 44.07899 -86.52918 42007 ft 546 kts 116°
2026-05-07 05:34 44.05007 -86.43150 42008 ft 546 kts 116°
2026-05-07 05:34 44.02104 -86.33386 42008 ft 546 kts 116°
2026-05-07 05:35 43.99197 -86.23640 42012 ft 546 kts 116°
2026-05-07 05:35 43.96278 -86.13893 41983 ft 546 kts 116°
2026-05-07 05:36 43.93346 -86.04145 42012 ft 549 kts 116°
2026-05-07 05:36 43.90393 -85.94365 42015 ft 550 kts 116°
2026-05-07 05:37 43.87455 -85.84662 42006 ft 550 kts 116°
2026-05-07 05:37 43.84467 -85.74836 41997 ft 550 kts 117°
2026-05-07 05:38 43.81510 -85.65150 41990 ft 550 kts 117°
2026-05-07 05:38 43.78528 -85.55417 41981 ft 549 kts 117°
2026-05-07 05:39 43.75533 -85.45680 41982 ft 549 kts 117°
2026-05-07 05:39 43.72533 -85.35963 41988 ft 550 kts 117°
2026-05-07 05:40 43.69516 -85.26227 42011 ft 551 kts 117°
2026-05-07 05:40 43.66486 -85.16486 42009 ft 552 kts 117°
2026-05-07 05:41 43.63447 -85.06752 42003 ft 551 kts 117°
2026-05-07 05:41 43.60403 -84.97036 42000 ft 551 kts 117°
2026-05-07 05:42 43.57354 -84.87345 42003 ft 551 kts 117°
2026-05-07 05:42 43.54296 -84.77658 41999 ft 551 kts 118°
2026-05-07 05:43 43.51229 -84.67980 41997 ft 551 kts 118°
2026-05-07 05:43 43.48173 -84.58368 41988 ft 552 kts 118°
2026-05-07 05:44 43.45083 -84.48691 41994 ft 552 kts 118°
2026-05-07 05:44 43.41981 -84.39009 41994 ft 552 kts 118°
2026-05-07 05:45 43.38877 -84.29354 41998 ft 552 kts 118°
2026-05-07 05:45 43.35762 -84.19700 41995 ft 552 kts 118°
2026-05-07 05:46 43.32637 -84.10051 41987 ft 553 kts 119°
2026-05-07 05:46 43.29503 -84.00410 41983 ft 552 kts 119°
2026-05-07 05:47 43.26362 -83.90784 41968 ft 552 kts 119°
2026-05-07 05:47 43.23208 -83.81150 41986 ft 554 kts 119°
2026-05-07 05:48 43.20068 -83.71595 41991 ft 554 kts 119°
2026-05-07 05:48 43.16893 -83.61966 41992 ft 554 kts 119°
2026-05-07 05:49 43.13715 -83.52365 41986 ft 554 kts 120°
2026-05-07 05:49 43.10520 -83.42746 41988 ft 555 kts 120°
2026-05-07 05:50 43.07320 -83.33145 41990 ft 555 kts 120°
2026-05-07 05:50 43.04111 -83.23551 41985 ft 555 kts 120°
2026-05-07 05:51 43.00891 -83.13956 41957 ft 555 kts 120°
2026-05-07 05:51 42.97660 -83.04368 41978 ft 556 kts 120°
2026-05-07 05:52 42.94438 -82.94834 41972 ft 556 kts 120°
2026-05-07 05:52 42.91185 -82.85246 41978 ft 556 kts 120°
2026-05-07 05:53 42.87930 -82.75684 41963 ft 556 kts 121°
2026-05-07 05:53 42.84659 -82.66109 41965 ft 557 kts 121°
2026-05-07 05:54 42.81474 -82.56482 41964 ft 561 kts 115°
2026-05-07 05:54 42.79395 -82.46167 41977 ft 566 kts 108°
2026-05-07 05:55 42.77648 -82.35708 41978 ft 568 kts 107°
2026-05-07 05:55 42.75953 -82.25277 41975 ft 568 kts 107°
2026-05-07 05:56 42.74216 -82.14777 41980 ft 569 kts 107°
2026-05-07 05:56 42.72452 -82.04293 41988 ft 569 kts 107°
2026-05-07 05:57 42.70670 -81.93804 41988 ft 569 kts 107°
2026-05-07 05:57 42.68881 -81.83335 41987 ft 569 kts 107°
2026-05-07 05:58 42.67094 -81.72933 41991 ft 568 kts 108°
2026-05-07 05:58 42.65286 -81.62463 41987 ft 569 kts 108°
2026-05-07 05:59 42.63468 -81.52004 41987 ft 569 kts 108°
2026-05-07 05:59 42.61641 -81.41547 41985 ft 569 kts 108°
2026-05-07 06:00 42.59805 -81.31100 41984 ft 569 kts 108°
2026-05-07 06:00 42.57957 -81.20651 41994 ft 569 kts 108°
2026-05-07 06:01 42.56101 -81.10211 41994 ft 570 kts 108°
2026-05-07 06:01 42.54233 -80.99764 41985 ft 569 kts 108°
2026-05-07 06:02 42.52357 -80.89327 41977 ft 569 kts 108°
2026-05-07 06:02 42.50481 -80.78954 41996 ft 570 kts 108°
2026-05-07 06:03 42.48581 -80.68507 41997 ft 570 kts 108°
2026-05-07 06:03 42.46677 -80.58096 41995 ft 569 kts 108°
2026-05-07 06:04 42.44765 -80.47695 41994 ft 570 kts 109°
2026-05-07 06:04 42.42836 -80.37267 41999 ft 570 kts 109°
2026-05-07 06:05 42.40899 -80.26849 41998 ft 570 kts 109°
2026-05-07 06:05 42.38968 -80.16518 41976 ft 570 kts 109°
2026-05-07 06:06 42.37012 -80.06110 41994 ft 571 kts 109°
2026-05-07 06:06 42.35045 -79.95704 41999 ft 571 kts 109°
2026-05-07 06:07 42.33068 -79.85300 42003 ft 571 kts 109°
2026-05-07 06:07 42.31084 -79.74914 42007 ft 571 kts 109°
2026-05-07 06:08 42.29087 -79.64516 42010 ft 572 kts 109°
2026-05-07 06:08 42.27080 -79.54119 42006 ft 572 kts 109°
2026-05-07 06:09 42.25408 -79.45501 42007 ft 572 kts 110°
2026-05-07 06:09 42.23041 -79.33367 42002 ft 573 kts 110°
2026-05-07 06:10 42.21344 -79.24713 42009 ft 574 kts 110°
2026-05-07 06:10 42.19067 -79.14430 42003 ft 566 kts 120°
2026-05-07 06:10 42.17275 -79.09778 41982 ft 553 kts 131°
2026-05-07 06:11 42.15061 -79.05593 41959 ft 546 kts 136°
2026-05-07 06:11 42.10412 -78.97504 41982 ft 547 kts 136°
2026-05-07 06:12 42.05729 -78.89422 41989 ft 547 kts 137°
2026-05-07 06:12 42.01032 -78.81340 41993 ft 548 kts 137°
2026-05-07 06:13 41.96329 -78.73269 41976 ft 548 kts 137°
2026-05-07 06:13 41.91652 -78.65263 41965 ft 549 kts 137°
2026-05-07 06:14 41.86934 -78.57211 41969 ft 548 kts 137°
2026-05-07 06:14 41.82210 -78.49168 41938 ft 549 kts 138°
2026-05-07 06:15 41.77463 -78.41115 41975 ft 552 kts 138°
2026-05-07 06:15 41.72705 -78.33055 41984 ft 552 kts 138°
2026-05-07 06:16 41.67934 -78.24994 41990 ft 552 kts 138°
2026-05-07 06:16 41.63192 -78.17002 41997 ft 552 kts 138°
2026-05-07 06:17 41.58422 -78.08985 41982 ft 551 kts 138°
2026-05-07 06:17 41.53679 -78.00874 41988 ft 560 kts 134°
2026-05-07 06:17 41.51727 -77.96302 41983 ft 576 kts 121°
2026-05-07 06:18 41.50444 -77.91181 41971 ft 589 kts 108°
2026-05-07 06:18 41.48880 -77.80422 41978 ft 595 kts 105°
2026-05-07 06:19 41.47376 -77.69545 41978 ft 595 kts 105°
2026-05-07 06:19 41.45835 -77.58701 41954 ft 595 kts 105°
2026-05-07 06:20 41.44275 -77.47870 41967 ft 595 kts 106°
2026-05-07 06:20 41.42697 -77.37041 41964 ft 595 kts 105°
2026-05-07 06:21 41.41124 -77.26261 41959 ft 596 kts 105°
2026-05-07 06:21 41.39531 -77.15421 41953 ft 597 kts 106°
2026-05-07 06:22 41.37919 -77.04561 41954 ft 598 kts 106°
2026-05-07 06:22 41.36299 -76.93704 41810 ft 598 kts 106°
2026-05-07 06:22 41.35486 -76.88279 41091 ft 598 kts 106°
2026-05-07 06:23 41.34662 -76.82823 39986 ft 608 kts 107°
2026-05-07 06:23 41.33709 -76.77283 38770 ft 616 kts 114°
2026-05-07 06:23 41.32373 -76.71882 37882 ft 615 kts 117°
2026-05-07 06:23 41.30952 -76.66519 37156 ft 613 kts 118°
2026-05-07 06:24 41.29520 -76.61183 36445 ft 612 kts 118°
2026-05-07 06:24 41.28103 -76.55916 35711 ft 612 kts 118°
2026-05-07 06:24 41.26671 -76.50598 34950 ft 612 kts 119°
2026-05-07 06:24 41.25233 -76.45264 34115 ft 613 kts 118°
2026-05-07 06:25 41.23792 -76.39928 33158 ft 615 kts 119°
2026-05-07 06:25 41.22341 -76.34571 32212 ft 615 kts 119°
2026-05-07 06:25 41.20892 -76.29223 31262 ft 616 kts 118°
2026-05-07 06:25 41.19436 -76.23856 30301 ft 617 kts 118°
2026-05-07 06:26 41.17981 -76.18497 29251 ft 617 kts 118°
2026-05-07 06:26 41.16532 -76.13165 28354 ft 611 kts 118°
2026-05-07 06:26 41.15099 -76.07904 27667 ft 602 kts 118°
2026-05-07 06:26 41.13683 -76.02713 26959 ft 594 kts 118°
2026-05-07 06:27 41.12282 -75.97598 26238 ft 586 kts 118°
2026-05-07 06:27 41.10898 -75.92565 25551 ft 577 kts 118°
2026-05-07 06:27 41.09535 -75.87618 24795 ft 562 kts 118°
2026-05-07 06:27 41.08221 -75.82833 23930 ft 541 kts 119°
2026-05-07 06:28 41.06973 -75.78303 23144 ft 520 kts 119°
2026-05-07 06:28 41.05736 -75.73853 22464 ft 513 kts 119°
2026-05-07 06:28 41.04503 -75.69443 21796 ft 508 kts 118°
2026-05-07 06:28 41.03279 -75.65059 21140 ft 503 kts 118°
2026-05-07 06:29 41.02077 -75.60753 20471 ft 497 kts 118°
2026-05-07 06:29 41.00883 -75.56474 19827 ft 491 kts 117°
2026-05-07 06:29 40.99708 -75.52253 19172 ft 486 kts 117°
2026-05-07 06:29 40.98537 -75.48075 18516 ft 481 kts 117°
2026-05-07 06:30 40.97389 -75.43976 17783 ft 467 kts 117°
2026-05-07 06:30 40.96282 -75.40016 17158 ft 452 kts 117°
2026-05-07 06:30 40.95188 -75.36126 16584 ft 448 kts 117°
2026-05-07 06:30 40.94107 -75.32290 15942 ft 443 kts 117°
2026-05-07 06:31 40.93049 -75.28539 15329 ft 437 kts 117°
2026-05-07 06:31 40.91991 -75.24793 14682 ft 433 kts 117°
2026-05-07 06:31 40.90940 -75.21084 14048 ft 428 kts 117°
2026-05-07 06:31 40.89889 -75.17374 13370 ft 422 kts 117°
2026-05-07 06:32 40.88879 -75.13808 12718 ft 416 kts 117°
2026-05-07 06:32 40.87872 -75.10258 12090 ft 409 kts 117°
2026-05-07 06:32 40.86886 -75.06758 11481 ft 404 kts 117°
2026-05-07 06:32 40.85935 -75.03364 11231 ft 378 kts 117°
2026-05-07 06:33 40.85071 -75.00256 11098 ft 345 kts 118°
2026-05-07 06:33 40.84273 -74.97400 10953 ft 318 kts 119°
2026-05-07 06:33 40.83502 -74.94698 10837 ft 312 kts 120°
2026-05-07 06:33 40.82575 -74.92168 10709 ft 299 kts 134°
2026-05-07 06:34 40.81333 -74.90049 10599 ft 290 kts 142°
2026-05-07 06:34 40.80015 -74.88042 10466 ft 289 kts 143°
2026-05-07 06:34 40.78714 -74.86067 10265 ft 289 kts 142°
2026-05-07 06:34 40.77415 -74.84096 9975 ft 288 kts 142°
2026-05-07 06:35 40.76073 -74.82065 9790 ft 300 kts 141°
2026-05-07 06:35 40.74689 -74.79967 9703 ft 302 kts 141°
2026-05-07 06:35 40.73353 -74.77912 9262 ft 295 kts 140°
2026-05-07 06:35 40.71992 -74.75827 8873 ft 301 kts 140°
2026-05-07 06:36 40.70634 -74.73762 8795 ft 302 kts 140°
2026-05-07 06:36 40.69281 -74.71688 8431 ft 298 kts 140°
2026-05-07 06:36 40.67921 -74.69608 7997 ft 300 kts 140°
2026-05-07 06:36 40.66557 -74.67527 7683 ft 301 kts 140°
2026-05-07 06:37 40.65190 -74.65442 7416 ft 301 kts 139°
2026-05-07 06:37 40.63829 -74.63366 7152 ft 300 kts 139°
2026-05-07 06:37 40.63088 -74.62237 7015 ft 299 kts 139°
2026-05-07 06:37 40.62050 -74.60658 6751 ft 299 kts 139°
2026-05-07 06:38 40.60685 -74.58581 6429 ft 299 kts 139°
2026-05-07 06:38 40.59325 -74.56514 6146 ft 298 kts 139°
2026-05-07 06:38 40.57972 -74.54457 5929 ft 296 kts 138°
2026-05-07 06:38 40.56628 -74.52417 5713 ft 294 kts 137°
2026-05-07 06:39 40.55289 -74.50389 5396 ft 292 kts 136°
2026-05-07 06:39 40.53963 -74.48377 4999 ft 289 kts 135°
2026-05-07 06:39 40.52652 -74.46391 4658 ft 286 kts 134°
2026-05-07 06:39 40.51355 -74.44413 4380 ft 286 kts 133°
2026-05-07 06:40 40.50239 -74.42250 4162 ft 287 kts 118°
2026-05-07 06:40 40.49609 -74.39831 4019 ft 287 kts 101°
2026-05-07 06:40 40.49525 -74.37159 4005 ft 286 kts 82°
2026-05-07 06:40 40.49941 -74.34753 4003 ft 254 kts 70°
2026-05-07 06:41 40.50447 -74.32736 4009 ft 217 kts 69°
2026-05-07 06:41 40.50970 -74.30905 4011 ft 212 kts 63°
2026-05-07 06:41 40.51668 -74.29264 3833 ft 199 kts 51°
2026-05-07 06:41 40.52559 -74.27885 3331 ft 196 kts 40°
2026-05-07 06:42 40.53603 -74.26844 3052 ft 179 kts 25°
2026-05-07 06:42 40.54625 -74.26156 2996 ft 152 kts 19°
2026-05-07 06:42 40.55521 -74.25583 2894 ft 136 kts 20°
2026-05-07 06:42 40.56343 -74.25061 2718 ft 126 kts 19°
2026-05-07 06:43 40.57118 -74.24568 2561 ft 123 kts 19°
2026-05-07 06:43 40.57884 -74.24081 2393 ft 121 kts 19°
2026-05-07 06:43 40.58636 -74.23602 2214 ft 119 kts 19°
2026-05-07 06:43 40.59380 -74.23131 2053 ft 118 kts 19°
2026-05-07 06:44 40.60114 -74.22664 1885 ft 116 kts 18°
2026-05-07 06:44 40.60835 -74.22207 1741 ft 114 kts 20°
2026-05-07 06:44 40.61544 -74.21756 1558 ft 114 kts 21°
2026-05-07 06:44 40.62216 -74.21329 1406 ft 114 kts 19°
2026-05-07 06:45 40.62933 -74.20874 1249 ft 115 kts 19°
2026-05-07 06:45 40.63649 -74.20419 1083 ft 114 kts 20°
2026-05-07 06:45 40.64361 -74.19967 918 ft 115 kts 22°
2026-05-07 06:45 40.65091 -74.19502 738 ft 116 kts 22°
2026-05-07 06:46 40.65845 -74.19025 588 ft 125 kts 22°
2026-05-07 06:46 40.66637 -74.18504 420 ft 127 kts 24°
2026-05-07 06:46 40.67374 -74.18029 230 ft 121 kts 19°
2026-05-07 06:46 40.68114 -74.17580 66 ft 114 kts 25°
2026-05-07 06:47 40.68785 -74.17162 30 ft 92 kts 26°
2026-05-07 06:47 40.69175 -74.16909 28 ft 51 kts 25°
2026-05-07 06:47 40.69465 -74.16723 29 ft 42 kts 26°
2026-05-07 06:47 40.69699 -74.16657 28 ft 14 kts 349°
2026-05-07 06:48 40.69709 -74.16660 27 ft 0 kts 350°
2026-05-07 06:48 40.69710 -74.16660 27 ft 1 kts 350°
2026-05-07 06:49 40.69738 -74.16665 27 ft 8 kts 353°
2026-05-07 06:49 40.69821 -74.16648 27 ft 16 kts 20°
2026-05-07 06:49 40.69914 -74.16593 27 ft 15 kts 25°
2026-05-07 06:49 40.69959 -74.16575 28 ft 3 kts 358°
2026-05-07 06:50 40.69981 -74.16608 28 ft 11 kts 300°
2026-05-07 06:50 40.69994 -74.16684 28 ft 8 kts 277°
2026-05-07 06:50 40.69973 -74.16735 28 ft 7 kts 214°
2026-05-07 06:50 40.69916 -74.16754 28 ft 10 kts 189°
2026-05-07 06:51 40.69831 -74.16771 28 ft 14 kts 188°
2026-05-07 06:51 40.69748 -74.16818 28 ft 13 kts 212°
2026-05-07 06:51 40.69660 -74.16886 28 ft 16 kts 204°
2026-05-07 06:51 40.69561 -74.16942 28 ft 16 kts 204°
2026-05-07 06:52 40.69451 -74.17010 28 ft 19 kts 206°
2026-05-07 06:52 40.69383 -74.17053 28 ft 12 kts 205°
2026-05-07 06:52 40.69302 -74.17103 28 ft 11 kts 205°
2026-05-07 06:52 40.69291 -74.17110 28 ft 0 kts 205°
2026-05-07 06:53 40.69282 -74.17116 28 ft 4 kts 205°
2026-05-07 06:53 40.69248 -74.17137 28 ft 7 kts 206°
2026-05-07 06:54 40.69194 -74.17173 28 ft 9 kts 212°
2026-05-07 06:54 40.69184 -74.17198 28 ft 2 kts 262°
2026-05-07 06:54 40.69183 -74.17227 28 ft 5 kts 269°
2026-05-07 06:54 40.69184 -74.17282 28 ft 7 kts 272°
2026-05-07 06:55 40.69186 -74.17310 28 ft 1 kts 275°
2026-05-07 06:55 40.69187 -74.17327 28 ft 1 kts 275°
2026-05-07 06:55 40.69188 -74.17335 28 ft 0 kts 275°